Location: Rowland
(34.5359°N, 79.2929°W)
Time: 20:11:34
(UTC+00:00)

Transit 2A - Pass Details

Date: 13 October 2022
Orbit: 598 x 959 km, 66.7° (Epoch: 03 December)

Event Time Altitude Azimuth Distance (km) Brightness Sun altitude
Rises 10:20:28 0° 341° (NNW) 3,029 8.9 -13.3°
Reaches altitude 10° 10:22:49 10° 349° (N) 2,161 8.2 -12.8°
Maximum altitude 10:27:29 41° 60° (ENE) 1,075 7.3 -11.8°
Drops below altitude 10° 10:32:35 10° 130° (SE) 2,377 9.4 -10.8°
Sets 10:35:16 0° 137° (SE) 3,367 10.1 -10.2°
